Marianna, FL

9:39 AM CST on January 21, 2018 (GMT -0600)
Marianna Municipal

Weather History for KMAI - March, 2013

Change the Weather History Date:

Saturday, March 2, 2013

  Actual Average Record
Temperature  
Mean Temperature 42 °F 58 °F  
Max Temperature 51 °F 70 °F 82 °F (2006)
Min Temperature 33 °F 46 °F 30 °F (2005)
Degree Days  
Heating Degree Days 23    
Month to date heating degree days 41  
Since 1 July heating degree days 1044  
Cooling Degree Days 0    
Month to date cooling degree days 0  
Year to date cooling degree days 59  
Moisture  
Dew Point 26 °F    
Average Humidity 57    
Maximum Humidity 75    
Minimum Humidity 38    
Precipitation  
Precipitation 0.00 in 0.15 in 1.99 in (2002)
Month to date precipitation 0.00 0.27  
Year to date precipitation 13.87 10.25  
Sea Level Pressure  
Sea Level Pressure 30.08 in    
Wind  
Wind Speed 11 mph (NW)    
Max Wind Speed 20 mph    
Max Gust Speed 25 mph    
Visibility 10 miles    
Events      
T = Trace of Precipitation, MM = Missing Value Source: NWS Daily Summary

Daily Weather History Graph

Daily Weather History Graph

Search for Another Location

Airport or City:

Trip Planner

Search our weather history database for the weather conditions in past years. The results will help you decide how hot, cold, wet, or windy it might be!

Date:

Astronomy

Mar. 02, 2013 Rise Set
Actual Time 6:05 AM CST 5:40 PM CST
Civil Twilight 5:41 AM CST 6:04 PM CST
Nautical Twilight 5:13 AM CST 6:32 PM CST
Astronomical Twilight 4:45 AM CST 7:00 PM CST
Moon 10:53 PM CST (3/2) 8:56 AM CST (3/2)
Length of Visible Light 12h 22m
Length of Day
11h 34m
Waning Gibbous, 74% of the Moon is Illuminated
Mar 2
Waning Gibbous
Mar 4
Last Quarter
Mar 11
New
Mar 19
First Quarter
Mar 27
Full

Hourly Weather History & Observations

Time (CST) Temp. Windchill Dew Point Humidity Pressure Visibility Wind Dir Wind Speed Gust Speed Precip Events Conditions
12:53 AM 39.0 °F 32.3 °F 28.0 °F 65% 30.09 in 10.0 mi NW 10.4 mph - N/A   Clear
1:53 AM 37.0 °F 32.4 °F 27.0 °F 67% 30.08 in 10.0 mi WNW 5.8 mph - N/A   Clear
2:53 AM 36.0 °F 32.1 °F 27.0 °F 70% 30.07 in 10.0 mi West 4.6 mph - N/A   Clear
3:53 AM 35.1 °F 30.1 °F 28.0 °F 76% 30.07 in 10.0 mi West 5.8 mph - N/A   Clear
4:53 AM 34.0 °F 29.8 °F 27.0 °F 75% 30.08 in 10.0 mi West 4.6 mph - N/A   Clear
6:53 AM 35.1 °F 27.9 °F 28.9 °F 78% 30.09 in 10.0 mi West 9.2 mph - N/A   Clear
7:53 AM 39.0 °F 31.8 °F 28.9 °F 67% 30.11 in 10.0 mi NW 11.5 mph - N/A   Clear
8:53 AM 42.1 °F 34.5 °F 28.0 °F 58% 30.11 in 10.0 mi NW 15.0 mph - N/A   Partly Cloudy
9:53 AM 43.0 °F 36.0 °F 26.1 °F 51% 30.11 in 10.0 mi WNW 13.8 mph 21.9 mph N/A   Overcast
10:53 AM 46.0 °F 39.9 °F 25.0 °F 44% 30.09 in 10.0 mi NW 13.8 mph - N/A   Mostly Cloudy
11:53 AM 48.9 °F - 25.0 °F 39% 30.07 in 10.0 mi WNW 13.8 mph 21.9 mph N/A   Overcast
12:53 PM 48.9 °F - 24.1 °F 38% 30.04 in 10.0 mi WNW 13.8 mph - N/A   Mostly Cloudy
1:53 PM 46.9 °F - 24.1 °F 41% 30.04 in 10.0 mi NNW 12.7 mph 21.9 mph N/A   Overcast
2:53 PM 46.9 °F - 23.0 °F 39% 30.04 in 10.0 mi NW 15.0 mph - N/A   Mostly Cloudy
3:53 PM 45.0 °F 38.5 °F 24.1 °F 44% 30.04 in 10.0 mi NW 13.8 mph 20.7 mph N/A   Overcast
4:53 PM 44.1 °F 37.7 °F 25.0 °F 47% 30.06 in 10.0 mi NNW 12.7 mph - N/A   Overcast
5:53 PM 43.0 °F 36.8 °F 25.0 °F 49% 30.07 in 10.0 mi NW 11.5 mph - N/A   Overcast
7:53 PM 41.0 °F 35.2 °F 27.0 °F 57% 30.11 in 10.0 mi NW 9.2 mph - N/A   Overcast
8:53 PM 41.0 °F 34.7 °F 27.0 °F 57% 30.12 in 10.0 mi WNW 10.4 mph - N/A   Overcast
9:53 PM 41.0 °F 35.2 °F 28.0 °F 60% 30.11 in 10.0 mi NW 9.2 mph - N/A   Overcast
10:53 PM 39.9 °F 34.5 °F 27.0 °F 60% 30.10 in 10.0 mi NW 8.1 mph - N/A   Overcast
11:53 PM 39.0 °F 31.4 °F 26.1 °F 60% 30.10 in 10.0 mi NW 12.7 mph - N/A   Overcast